Location: Date Creek
(34.2167°N, 113.0301°W)
Time: 16:15:42
(UTC-07:00)

ISS - Visible Passes

Search period start: 21 November 2017 00:00
Search period end: 01 December 2017 00:00
Orbit: 402 x 407 km, 51.6° (Epoch: 22 November)

Date Brightness Start Highest point End Pass type
(mag) Time Alt. Az. Time Alt. Az. Time Alt. Az.
21 Nov -1.2 05:51:20 10° SSW 05:51:20 10° SSW 05:51:23 10° SSW visible
23 Nov -1.6 19:03:57 10° S 19:05:02 17° S 19:05:02 17° S visible
24 Nov -1.5 18:13:22 10° SSE 18:14:33 12° SE 18:15:23 11° ESE visible
24 Nov -0.7 19:47:29 10° WSW 19:48:04 14° WSW 19:48:04 14° WSW visible
25 Nov -3.9 18:55:06 10° SW 18:58:19 73° SE 18:58:19 73° SE visible
26 Nov -2.8 18:03:10 10° SSW 18:06:06 31° SE 18:08:29 14° ENE visible
26 Nov -0.9 19:40:01 10° W 19:41:09 16° WNW 19:41:09 16° WNW visible
27 Nov -2.7 18:47:03 10° WSW 18:50:07 38° NW 18:51:12 29° N visible
28 Nov -3.8 17:54:29 10° SW 17:57:45 84° NW 18:01:01 10° NE visible
28 Nov -0.7 19:33:35 10° NW 19:33:50 10° NW 19:33:50 10° NW visible
29 Nov -1.5 18:39:43 10° WNW 18:42:02 18° NNW 18:43:43 13° N visible
30 Nov -2.3 17:46:33 10° WSW 17:49:30 31° NW 17:52:28 10° NNE visible
